Zurück zum Katalog

TMSAT

AktivAmateurfunkSSO
NORAD 25396·PAYLOAD·🇹🇭 Thailand

Gestartet Jul 10, 1998 von Baikonur Cosmodrome

Loading…

Nächste Überflüge (nächste 24 Stunden)

TLE

AktuellSource: Space-Track

Epoche: Sep 14, 2026, 10:38 UTC

1 25396U 98043C   26257.44308536  .00000066  00000-0  47270-4 0  9990
2 25396  98.9948 250.8134 0001589 264.9613  95.1384 14.25785361464715

Verfolge TMSAT in Echtzeit mit AllMySat

Download on the App Store